Weather History for Chester, CT

Change the Weather History Date:

Thursday, April 24, 2014

  Actual Average (KHVN) Record (KHVN)
Temperature  
Mean Temperature 48 °F -  
Max Temperature 57 °F 59 °F 80 °F (1979)
Min Temperature 39 °F 42 °F 28 °F (2002)
Degree Days  
Heating Degree Days 17    
Moisture  
Dew Point 18 °F    
Average Humidity 32    
Maximum Humidity 61    
Minimum Humidity 18    
Precipitation  
Precipitation 0.00 in - - ()
Sea Level Pressure  
Sea Level Pressure 29.80 in    
Wind  
Wind Speed 15 mph (NW)    
Max Wind Speed 24 mph    
Max Gust Speed 41 mph    
Visibility 10 miles    
Events      
Averages and records for this station are not official NWS values.
T = Trace of Precipitation, MM = Missing Value Source: NWS Daily Summary

Daily Weather History Graph

Daily Weather History Graph

Search for Another Location

Airport:

Trip Planner

Search our weather history database for the weather conditions in past years. The results will help you decide how hot, cold, wet, or windy it might be!

Date:

Astronomy

Apr. 24, 2014 Rise Set
Actual Time 5:56 AM EDT 7:40 PM EDT
Civil Twilight 5:27 AM EDT 8:09 PM EDT
Nautical Twilight 4:51 AM EDT 8:45 PM EDT
Astronomical Twilight 4:13 AM EDT 9:23 PM EDT
Moon 3:09 AM EDT (4/24) 2:49 PM EDT (4/24)
Length of Visible Light 14h 41m
Length of Day
13h 43m
Waning Crescent, 24% of the Moon is Illuminated
Apr 24
Waning Crescent
Apr 29
New
May 6
First Quarter
May 14
Full
May 21
Last Quarter

Hourly Weather History & Observations

Time (EDT) Temp. Windchill Dew Point Humidity Pressure Visibility Wind Dir Wind Speed Gust Speed Precip Events Conditions
12:15 AM 44.6 °F 38.8 °F 32.0 °F 61% 29.71 in 10.0 mi NW 11.5 mph 27.6 mph N/A   Overcast
12:35 AM 44.6 °F 37.8 °F 30.2 °F 57% 29.72 in 10.0 mi NW 15.0 mph 25.3 mph N/A   Overcast
12:55 AM 44.6 °F 36.4 °F 30.2 °F 57% 29.71 in 10.0 mi NW 20.7 mph 31.1 mph N/A   Overcast
1:15 AM 44.6 °F 36.9 °F 28.4 °F 53% 29.71 in 10.0 mi NNW 18.4 mph 29.9 mph N/A   Scattered Clouds
1:35 AM 42.8 °F 35.1 °F 28.4 °F 57% 29.71 in 10.0 mi NNW 16.1 mph 25.3 mph N/A   Clear
1:55 AM 42.8 °F 35.8 °F 26.6 °F 53% 29.72 in 10.0 mi NW 13.8 mph 25.3 mph N/A   Clear
2:15 AM 42.8 °F 35.1 °F 26.6 °F 53% 29.72 in 10.0 mi NW 16.1 mph 31.1 mph N/A   Clear
2:35 AM 42.8 °F 35.8 °F 26.6 °F 53% 29.72 in 10.0 mi NW 13.8 mph 28.8 mph N/A   Clear
2:55 AM 42.8 °F 35.4 °F 26.6 °F 53% 29.72 in 10.0 mi NW 15.0 mph 25.3 mph N/A   Clear
3:15 AM 42.8 °F 37.0 °F 26.6 °F 53% 29.72 in 10.0 mi NW 10.4 mph 23.0 mph N/A   Clear
3:35 AM 42.8 °F 36.2 °F 26.6 °F 53% 29.72 in 10.0 mi NW 12.7 mph 23.0 mph N/A   Clear
3:55 AM 42.8 °F 34.3 °F 26.6 °F 53% 29.73 in 10.0 mi NNW 19.6 mph 26.5 mph N/A   Clear
4:15 AM 42.8 °F 35.4 °F 26.6 °F 53% 29.73 in 10.0 mi NW 15.0 mph 21.9 mph N/A   Clear
4:35 AM 41.0 °F 33.9 °F 26.6 °F 57% 29.73 in 10.0 mi NW 12.7 mph 18.4 mph N/A   Clear
4:55 AM 41.0 °F 33.9 °F 26.6 °F 57% 29.74 in 10.0 mi NW 12.7 mph 24.2 mph N/A   Clear
5:15 AM 41.0 °F 33.5 °F 24.8 °F 53% 29.74 in 10.0 mi NNW 13.8 mph 20.7 mph N/A   Clear
5:35 AM 41.0 °F 33.5 °F 23.0 °F 49% 29.74 in 10.0 mi NW 13.8 mph 19.6 mph N/A   Clear
5:55 AM 39.2 °F 30.2 °F 21.2 °F 49% 29.74 in 10.0 mi NNW 17.3 mph 25.3 mph N/A   Clear
6:15 AM 39.2 °F 29.6 °F 19.4 °F 45% 29.74 in 10.0 mi NW 19.6 mph 28.8 mph N/A   Clear
6:35 AM 39.2 °F 30.8 °F 19.4 °F 45% 29.76 in 10.0 mi NNW 15.0 mph 23.0 mph N/A   Clear
6:55 AM 39.2 °F 31.2 °F 17.6 °F 42% 29.77 in 10.0 mi NW 13.8 mph 26.5 mph N/A   Clear
7:15 AM 41.0 °F 32.5 °F 15.8 °F 36% 29.77 in 10.0 mi NW 17.3 mph 25.3 mph N/A   Clear
7:35 AM 41.0 °F 33.1 °F 15.8 °F 36% 29.78 in 10.0 mi NW 15.0 mph 28.8 mph N/A   Clear
7:55 AM 41.0 °F 32.8 °F 14.0 °F 33% 29.79 in 10.0 mi NW 16.1 mph 27.6 mph N/A   Clear
8:15 AM 42.8 °F 35.1 °F 14.0 °F 31% 29.79 in 10.0 mi NNW 16.1 mph 29.9 mph N/A   Clear
8:35 AM 42.8 °F 34.8 °F 14.0 °F 31% 29.79 in 10.0 mi NW 17.3 mph 29.9 mph N/A   Clear
8:55 AM 42.8 °F 34.3 °F 15.8 °F 34% 29.80 in 10.0 mi NW 19.6 mph 27.6 mph N/A   Clear
9:15 AM 42.8 °F 36.2 °F 14.0 °F 31% 29.79 in 10.0 mi NW 12.7 mph 26.5 mph N/A   Clear
9:35 AM 44.6 °F 38.8 °F 14.0 °F 29% 29.78 in 10.0 mi NW 11.5 mph 28.8 mph N/A   Clear
9:55 AM 46.4 °F 41.1 °F 14.0 °F 27% 29.78 in 10.0 mi NW 11.5 mph 20.7 mph N/A   Clear
10:15 AM 46.4 °F 38.1 °F 12.2 °F 25% 29.79 in 10.0 mi North 24.2 mph 33.4 mph N/A   Clear
10:35 AM 46.4 °F 38.3 °F 12.2 °F 25% 29.80 in 10.0 mi NNW 23.0 mph 35.7 mph N/A   Clear
10:55 AM 48.2 °F - 12.2 °F 24% 29.79 in 10.0 mi NNW 17.3 mph 31.1 mph N/A   Clear
11:15 AM 48.2 °F - 14.0 °F 25% 29.80 in 10.0 mi NW 15.0 mph 28.8 mph N/A   Clear
11:35 AM 50.0 °F - 14.0 °F 24% 29.80 in 10.0 mi NW 23.0 mph 32.2 mph N/A   Clear
11:55 AM 51.8 °F - 14.0 °F 22% 29.80 in 10.0 mi NNW 16.1 mph 31.1 mph N/A   Clear
12:15 PM 50.0 °F - 14.0 °F 24% 29.80 in 10.0 mi NNW 13.8 mph 33.4 mph N/A   Clear
12:35 PM 51.8 °F - 15.8 °F 24% 29.80 in 10.0 mi NNW 18.4 mph 41.4 mph N/A   Clear
12:55 PM 51.8 °F - 15.8 °F 24% 29.80 in 10.0 mi NW 19.6 mph 32.2 mph N/A   Clear
1:15 PM 51.8 °F - 17.6 °F 26% 29.79 in 10.0 mi NW 24.2 mph 33.4 mph N/A   Clear
1:35 PM 53.6 °F - 15.8 °F 22% 29.79 in 10.0 mi NW 15.0 mph 27.6 mph N/A   Clear
1:55 PM 55.4 °F - 15.8 °F 21% 29.78 in 10.0 mi NNW 18.4 mph 31.1 mph N/A   Clear
2:15 PM 53.6 °F - 15.8 °F 22% 29.78 in 10.0 mi NW 19.6 mph 32.2 mph N/A   Clear
2:35 PM 55.4 °F - 15.8 °F 21% 29.78 in 10.0 mi NW 21.9 mph 29.9 mph N/A   Clear
2:55 PM 55.4 °F - 15.8 °F 21% 29.79 in 10.0 mi NW 13.8 mph 26.5 mph N/A   Clear
3:15 PM 55.4 °F - 14.0 °F 20% 29.78 in 10.0 mi NNW 18.4 mph 34.5 mph N/A   Clear
3:35 PM 55.4 °F - 14.0 °F 20% 29.78 in 10.0 mi NW 20.7 mph 36.8 mph N/A   Clear
3:55 PM 55.4 °F - 14.0 °F 20% 29.79 in 10.0 mi NW 19.6 mph 33.4 mph N/A   Clear
4:15 PM 57.2 °F - 14.0 °F 18% 29.79 in 10.0 mi NW 17.3 mph 27.6 mph N/A   Clear
4:35 PM 57.2 °F - 14.0 °F 18% 29.79 in 10.0 mi NNW 24.2 mph 32.2 mph N/A   Clear
4:55 PM 57.2 °F - 14.0 °F 18% 29.79 in 10.0 mi NNW 17.3 mph 34.5 mph N/A   Clear
5:15 PM 57.2 °F - 14.0 °F 18% 29.80 in 10.0 mi NNW 17.3 mph 32.2 mph N/A   Clear
5:35 PM 57.2 °F - 14.0 °F 18% 29.80 in 10.0 mi NW 17.3 mph 34.5 mph N/A   Clear
5:55 PM 57.2 °F - 14.0 °F 18% 29.81 in 10.0 mi North 16.1 mph 26.5 mph N/A   Clear
6:15 PM 57.2 °F - 14.0 °F 18% 29.82 in 10.0 mi NW 12.7 mph 36.8 mph N/A   Clear
6:35 PM 55.4 °F - 14.0 °F 20% 29.83 in 10.0 mi NW 13.8 mph 28.8 mph N/A   Clear
6:55 PM 55.4 °F - 14.0 °F 20% 29.83 in 10.0 mi NW 16.1 mph 32.2 mph N/A   Clear
7:15 PM 55.4 °F - 14.0 °F 20% 29.84 in 10.0 mi NW 13.8 mph 26.5 mph N/A   Clear
7:35 PM 55.4 °F - 14.0 °F 20% 29.86 in 10.0 mi NW 17.3 mph 26.5 mph N/A   Clear
7:55 PM 53.6 °F - 15.8 °F 22% 29.87 in 10.0 mi NW 9.2 mph 16.1 mph N/A   Clear
8:15 PM 53.6 °F - 15.8 °F 22% 29.89 in 10.0 mi NNW 6.9 mph 18.4 mph N/A   Clear
8:35 PM 53.6 °F - 15.8 °F 22% 29.90 in 10.0 mi NW 10.4 mph 16.1 mph N/A   Clear
8:55 PM 51.8 °F - 14.0 °F 22% 29.91 in 10.0 mi NW 13.8 mph 18.4 mph N/A   Clear
9:15 PM 51.8 °F - 14.0 °F 22% 29.93 in 10.0 mi NW 8.1 mph - N/A   Clear
9:35 PM 51.8 °F - 14.0 °F 22% 29.93 in 10.0 mi NW 9.2 mph - N/A   Clear
9:55 PM 51.8 °F - 14.0 °F 22% 29.94 in 10.0 mi NW 9.2 mph 18.4 mph N/A   Clear
10:15 PM 50.0 °F - 14.0 °F 24% 29.95 in 10.0 mi NW 9.2 mph 17.3 mph N/A   Clear
10:35 PM 50.0 °F - 14.0 °F 24% 29.95 in 10.0 mi NNW 6.9 mph - N/A   Clear
10:55 PM 48.2 °F - 15.8 °F 27% 29.96 in 10.0 mi NW 9.2 mph - N/A   Clear
11:15 PM 48.2 °F - 15.8 °F 27% 29.96 in 10.0 mi NNW 9.2 mph - N/A   Clear
11:35 PM 48.2 °F - 15.8 °F 27% 29.97 in 10.0 mi NNW 9.2 mph - N/A   Clear
11:55 PM 46.4 °F 43.5 °F 17.6 °F 32% 29.97 in 10.0 mi NNW 5.8 mph - N/A   Clear